ISS (ZARYA) 1 25544U 98067A 10065.70225694 .00014955 00000-0 10824-3 0 7155 2 25544 051.6484 036.7443 0007759 020.7312 337.5215 15.73686448647320 PSSC (Decayed 2010-02-17) 1 33445U 08059B 10048.55178104 .13886539 12620-4 29203-3 0 5684 2 33445 051.6166 082.1835 0003309 305.0024 074.4202 16.46790444 70586